Probability
0 0 0 0 0 0 0 0 0 0 0 0 0 0 0 0 0 0 0 0 0 0 0 0 0 0 0 0 0 0 0 0 0 0 0 0 0 0
0 0 0 0 0 0 0 0 0 0 0 0 0 0 0 0 0 0 0 0 0 0 0 0 0 0 0 0 0 0 0 0 0 0 0 0 0 0
0 0 0 0 0 0 0 0 0 0 0 0 0 0 0 0 0 0 0 0 0 0 0 0 0 0 0 0 0 0 0 0 0 0 0 0 0 0
0 0 0 0 0 0 0 0 0 0 0 0 0 0 0 0 0 0 0 0 0 0 0 0 0 0 0 0 0 0 0 0 0 0 0 0 0 0
0 0 0 0 0 0 0 0 0 0 0 0 0 0 0 0 0 0 0 0 0 0 0 0 0 0 0 0 0 0 0 0 0 0 0 0 0 0
0 0 0 0 0 0 0 0 0 0 0 0 0 0 0 0 0 0 0 0 0 0 0 0 0 0 0 0 0 0 0 0 0 0 0 0 0 0
0 0 0 0 0 0 0 0 0 0 0 0 0 0 0 0 0 0 0 0 0 0 0 0 0 0 0 0 0 0 0 0 0 0 0 0 0 0
0 0 0 0 0 0 0 0 0 0 0 0 0 0 0 0 0 0 0 0 0 0 0 0 0 0 0 0 0 0 0 0 0 0 0 0 0 0
0 0 0 0 0 0 0 0 0 0 0 0 0 0 0 0 0 0 0 0 0 0 0 0 0 0 0 0 0 0 0 0 0 0 0 0 0 0
0 0 0 0 0 0 0 0 0 0 0 0 0 0 0 0 0 0 0 0 0 0 0 0 0 0 0 0 0 0 0 0 0 0 0 0 0 0
0 0 0 0 0 0 0 0 0 0 0 0 0 0 0 0 0 0 0 0 0 0 0 0 0 0 0 0 0 0 0 0 0 0 0 0 0 0
0 0 0 0 0 0 0 0 0 0 0 0 0 0 0 0 0 0 0 0 0 0 0 0 0 0 0 0 0 0 0 0 0 0 0 0 0 0
0 0 0 0 0 0 0 0 0 0 0 0 0 0 0 0 0 0 0 0 0 0 0 0 0 0 0 0 0 0 0 0 0 0 0 0 0 0
0 0 0 0 0 0 0 0 0 0 0 0 0 0 0 0 0 0 0 0 0 0 0 0 0 0 0 0 0 0 0 0 0 0 0 0 0 0
0 0 0 0 0 0 0 0 0 0 0 0 0 0 0 0 0 0 0 0 0 0 0 0 0 0 0 0 0 0 0 0 0 0 0 0 0 0
0 0 0 0 0 0 0 0 0 0 0 0 0 0 0 0 0 0 0 0 0 0 0 0 0 0 0 0 0 0 0 0 0 0 0 0 0 0
0 0 0 0 0 0 0 0 0 0 0 0 0 0 0 0 0 0 0 0 0 0 0 0 0 0 0 0 0 0 0 0 0 0 0 0 0 0
0 0 0 0 0 0 0 0 0 0 0 0 0 0 0 0 0 0 0 0 0 0 0 0 0 0 0 0 0 0 0 0 0 0 0 0 0 0
0 0 0 0 0 0 0 0 0 0 0 0 0 0 0 0 0 0 0 0 0 0 0 0 0 0 0 0 0 0 0 0 0 0 0 0 0 0
0 0 0 0 0 0 0 0 0 0 0 0 0 0 0 0 0 0 0 0 0 0 0 0 0 0 0 0 0 0 0 0 0 0 0 0 0 0
0 0 0 0 0 0 0 0 0 0 0 0 0 0 0 0 0 0 0 0 0 0 0 0 0 0 0 0 0 0 0 0 0 0 0 0 0 0
0 0 0 0 0 0 0 0 0 0 0 0 0 0 0 0 0 0 0 0 0 0 0 0 0 0 0 0 0 0 0 0 0 0 0 0 0 0
0 0 0 0 0 0 0 0 0 0 0 0 0 0 0 0 0 0 0 0 0 0 0 0 0 0 0 0 0 0 0 0 0 0 0 0 0 0
Wind_Speed
4 4 3 3 2 2 3 3 4 3 4 3 2 2 1 1 1 2 2 3 2 3 2 1 2 2 2 3 3 3 4 4 4 4 4 5 5 6
4 5 4 3 3 3 3 2 2 3 3 2 2 1 2 1 2 2 2 3 3 3 3 2 2 2 3 3 3 3 3 3 4 4 5 5 6 6
5 6 6 4 4 3 3 3 2 2 4 2 1 1 3 3 2 1 2 2 3 4 3 3 2 3 3 4 3 3 3 3 4 5 5 6 7 7
7 7 6 5 5 4 4 4 3 3 3 4 2 2 3 4 3 2 2 2 2 4 4 4 4 3 3 4 4 4 4 4 4 5 5 6 7 8
8 8 7 7 6 5 5 4 4 3 3 3 3 2 2 2 2 2 2 2 2 3 4 4 4 4 4 4 4 4 4 4 5 5 5 6 7 7
8 8 8 8 8 7 6 6 4 4 3 3 3 2 2 2 2 2 2 2 2 2 3 3 3 4 5 5 5 5 5 5 5 6 6 6 6 7
7 8 8 9 10 8 6 6 5 5 4 3 3 2 2 3 4 2 2 1 2 2 1 2 2 2 3 4 5 6 6 6 6 6 6 6 6 7
8 8 8 9 10 11 10 9 8 7 6 5 4 5 5 4 3 3 2 2 2 2 2 3 2 3 2 2 5 7 7 7 7 7 7 7 7 7
8 7 6 7 9 7 8 9 8 9 8 6 6 6 5 5 5 4 4 3 3 2 2 3 2 3 2 3 7 8 7 7 7 7 7 7 7 7
7 8 8 7 8 8 7 6 6 6 7 6 6 6 5 4 5 4 4 2 1 1 2 3 2 3 3 3 7 8 7 6 6 6 7 7 7 8
6 6 7 7 9 10 8 7 6 5 5 6 6 6 6 6 4 3 3 2 2 2 2 2 2 2 3 3 4 6 6 6 7 7 6 6 6 6
4 5 8 8 9 10 8 8 7 6 4 4 4 5 4 5 6 4 4 4 2 2 2 3 2 1 2 2 2 3 4 6 7 6 6 6 6 3
3 3 4 7 9 9 8 7 8 6 5 4 4 3 2 3 3 3 3 3 3 3 3 3 2 2 2 2 2 3 3 3 3 4 6 7 6 4
3 2 3 6 7 8 7 7 8 6 4 4 4 3 3 3 3 3 2 2 3 3 3 3 2 3 3 3 3 2 2 2 2 3 3 5 5 6
2 3 3 5 6 4 5 6 5 4 4 4 4 3 3 3 2 1 1 1 1 2 3 3 3 3 3 3 3 3 2 2 2 2 2 3 3 2
1 1 1 2 2 2 2 2 2 3 3 4 3 2 2 2 2 2 2 2 1 2 2 3 3 4 4 3 3 3 3 2 2 3 3 3 3 3
1 1 1 1 1 1 1 1 1 1 2 2 3 3 2 2 2 2 2 2 2 2 2 1 1 2 3 3 3 3 3 3 3 3 2 3 3 3
0 1 1 1 1 1 1 1 1 2 2 2 2 2 2 2 2 2 1 2 2 2 2 1 1 1 1 2 4 4 3 3 3 3 2 3 4 3
2 1 1 1 0 0 1 1 1 1 1 2 2 2 2 2 2 2 2 2 2 2 2 2 2 2 2 3 3 3 3 3 2 2 3 3 4 4
2 1 1 1 0 0 0 1 1 1 1 1 2 2 2 2 2 2 3 3 3 2 2 2 2 3 4 4 3 4 4 3 3 3 3 3 3 4
2 1 1 1 0 0 1 1 1 1 2 2 2 2 2 2 2 3 3 4 3 2 3 3 4 4 1 0 2 3 3 4 4 3 2 2 3 3
2 2 1 1 0 0 1 1 1 2 2 2 2 2 2 3 3 3 3 3 3 3 3 2 1 1 1 2 3 3 3 2 3 4 4 4 3 3
2 2 1 1 1 1 1 1 1 2 2 2 2 2 2 3 3 3 3 3 3 3 2 2 2 1 2 2 3 3 3 2 2 2 2 4 6 7
Wind_Direction
215 208 206 204 201 205 187 183 183 204 222 218 216 211 213 212 214 198 228 247 256 266 277 286 285 290 292 299 307 314 323 334 330 323 326 325 320 315
210 202 208 203 201 206 195 200 204 200 223 219 219 225 214 247 253 219 237 254 254 257 256 274 279 280 284 284 290 300 308 310 309 313 316 322 323 313
209 202 208 201 203 205 198 197 208 204 224 250 231 222 207 211 242 245 234 227 233 247 247 255 274 273 270 279 278 284 290 294 299 305 309 311 313 310
207 203 207 201 209 207 201 206 209 209 209 232 244 213 222 208 207 224 253 252 233 247 251 253 256 267 270 271 275 279 279 284 290 296 301 303 305 304
207 204 204 198 210 210 207 209 212 216 209 212 237 218 226 210 199 228 239 244 258 252 253 251 255 271 280 275 267 269 274 276 278 284 293 299 300 302
212 207 205 202 208 209 210 211 209 210 212 209 231 215 207 205 193 209 241 230 250 269 250 255 263 270 276 280 270 267 270 268 270 276 281 287 293 296
215 211 210 209 213 213 212 206 201 202 204 211 222 211 204 200 208 206 236 247 261 243 235 252 251 251 261 273 270 263 265 266 269 271 272 279 286 290
216 214 214 214 219 223 226 222 211 201 203 203 217 215 211 207 202 206 211 228 247 216 223 257 233 243 258 258 275 267 264 263 263 268 271 275 279 282
215 214 217 216 214 209 221 228 229 230 221 204 212 215 206 201 194 200 211 220 239 226 217 247 236 247 254 269 282 274 267 266 267 267 268 272 276 279
216 211 211 212 209 202 200 210 220 226 229 221 214 216 210 201 202 206 207 213 279 253 218 237 236 253 275 268 273 265 263 264 269 274 276 275 278 281
219 215 212 209 213 210 203 206 215 227 236 232 230 229 220 216 204 173 178 197 250 248 209 211 234 268 264 253 266 269 271 274 275 277 277 282 284 285
215 216 220 217 214 213 205 200 210 215 207 212 229 236 220 212 214 202 192 201 220 240 208 199 216 232 266 249 249 264 260 270 275 277 280 283 283 279
210 211 211 219 221 219 215 207 214 208 195 202 204 197 195 197 203 209 208 207 210 228 212 194 203 212 230 269 267 252 241 259 262 267 272 277 276 270
208 213 210 218 223 224 222 219 223 219 197 192 189 192 195 202 204 203 211 221 230 233 218 207 214 205 211 248 266 267 248 251 256 262 261 271 272 276
204 199 219 219 219 222 223 227 228 209 194 191 194 201 196 187 175 176 197 216 261 257 229 221 220 223 212 224 245 257 266 260 244 257 257 256 258 258
263 206 222 224 217 208 225 241 230 206 193 193 188 183 163 170 187 190 197 203 232 268 261 236 225 219 223 229 233 252 240 239 247 262 269 271 263 249
151 82 96 128 158 177 180 185 199 185 190 180 179 181 184 189 199 190 195 202 224 241 256 260 244 241 235 219 236 248 242 250 245 252 267 277 268 253
98 114 123 135 165 191 201 205 200 189 190 188 185 186 189 192 199 200 206 210 225 238 241 238 232 275 289 272 232 236 239 243 251 247 251 263 270 265
68 89 107 130 149 161 187 197 206 203 186 184 189 190 193 195 196 204 211 217 230 234 236 229 224 213 234 263 266 234 236 258 255 257 256 258 262 267
46 68 77 79 106 167 190 207 206 181 172 176 179 184 188 191 198 210 214 217 227 229 238 240 233 225 229 244 260 273 261 250 248 256 274 289 280 276
28 36 47 61 55 250 217 207 203 199 194 189 190 194 197 197 207 216 221 237 238 227 230 242 249 260 257 200 271 280 280 268 258 253 256 277 289 277
16 12 11 11 342 303 274 222 205 207 207 206 209 208 208 206 213 217 220 229 234 235 239 247 244 237 220 231 255 269 284 298 312 302 276 258 246 244
355 350 348 349 334 308 286 251 228 221 211 212 216 216 213 214 221 224 224 227 231 233 239 242 239 239 245 238 248 263 265 278 298 316 303 300 289 280